Location: Altleiningen
(49.5078°N, 8.0741°E)
Time: 04:50:48
(UTC+00:00)

Cosmos 1703 Rocket - Pass Details

Date: 03 March 2021
Orbit: 604 x 634 km, 82.5° (Epoch: 11 April)

Event Time Altitude Azimuth Distance (km) Brightness Sun altitude
Rises 18:46:51 0° 350° (N) 2,915 7.3 -15.8°
Reaches altitude 10° 18:49:06 10° 351° (N) 1,999 6.4 -16.2°
Maximum altitude 18:53:32 87° 81° (E) 624 3.5 -16.9°
Drops below altitude 10° 18:57:54 10° 170° (S) 1,964 5.9 -17.6°
Enters shadow 18:59:32 - 171° (S) 2,628 6.6 -17.9°
